Tracking 31027 objects as of 19-Jul-2025
HD Live streaming from Space Station
objects crossing your sky now

OVZON-3

Track OVZON-3 now!
OVZON-3 is classified as:


NORAD ID: 58698
Int'l Code: 2024-003A
Perigee: 35,792.6 km
Apogee: 35,794.7 km
Inclination: 0.0 °
Period: 1,436.1 minutes
Semi major axis: 42164 km
RCS: Unknown
Launch date: January 3, 2024
Source: Sweden (SWED)
Launch site: AIR FORCE EASTERN TEST RANGE (AFETR)
Your satellite tracking list
ST5-A
Track 1 satellite(s)




NASA's NSSDC Master Catalog

Two Line Element Set (TLE):
1 58698U 24003A   25199.82306432  .00000057  00000-0  00000+0 0  9990
2 58698   0.0128  54.5879 0000246 202.2196  36.0604  1.00272162  5882
Source of the keplerian elements: AFSPC